Location: Hilton Head Island
(32.2163°N, 80.7526°W)
Time: 21:31:51
(UTC-04:00)

Transit 2A Rocket - Pass Details

Date: 06 February 2026
Orbit: 583 x 900 km, 66.7° (Epoch: 12 March)

Event Time Altitude Azimuth Distance (km) Brightness Sun altitude
Rises 04:48:00 0° 332° (NNW) 3,340 - -31.1°
Reaches altitude 10° 04:50:33 10° 330° (NNW) 2,358 - -30.6°
Maximum altitude 04:55:54 73° 247° (WSW) 774 - -29.4°
Exits shadow 04:58:48 25° 167° (SSE) 1,412 6.4 -28.8°
Drops below altitude 10° 05:00:45 10° 163° (SSE) 2,132 7.5 -28.4°
Sets 05:02:58 0° 161° (SSE) 2,997 8.3 -27.9°
